Location: Monte Entu
(40.0333°N, 8.5333°E)
Time: 02:41:53
(UTC+00:00)

Cosmos 1943 Rocket - Pass Details

Date: 09 February 2023
Orbit: 811 x 844 km, 71.0° (Epoch: 23 March)

Event Time Altitude Azimuth Distance (km) Brightness Sun altitude
Rises 18:42:36 0° 346° (NNW) 3,410 5.5 -21.2°
Reaches altitude 10° 18:45:27 10° 359° (N) 2,469 4.6 -21.7°
Enters shadow 18:48:31 23° 28° (NNE) 1,712 3.5 -22.3°
